Location: ???????
(54.9996°N, 37.9529°E)
Time: 18:42:57
(UTC+00:00)

Cosmos 2360 Rocket - Pass Details

Date: 14 April 2024
Orbit: 832 x 846 km, 71.0° (Epoch: 27 May)

Event Time Altitude Azimuth Distance (km) Brightness Sun altitude
Exits shadow 00:09:40 25° 249° (WSW) 1,635 3.2 -17.2°
Maximum altitude 00:12:44 50° 313° (NW) 1,064 2.7 -16.9°
Drops below altitude 10° 00:18:14 10° 29° (NNE) 2,466 5.8 -16.4°
Sets 00:20:46 0° 35° (NE) 3,406 7.1 -16.1°
